Location: Asheville, NC
(35.6000°N, 82.5500°W)
Time: 17:09:27
(UTC-04:00)

RS-15 - Pass Details

Date: 17 March 2018
Orbit: 1890 x 2154 km, 64.8° (Epoch: 17 June)

Event Time Altitude Azimuth Distance (km) Brightness Sun altitude
Exits shadow 00:16:20 33° 33° (NNE) 3,146 9.1 -50.8°
Drops below altitude 10° 00:21:40 10° 31° (NNE) 4,593 10.1 -51.4°
Sets 00:25:00 0° 31° (NNE) 5,570 10.7 -51.7°
